Retour au catalogue

ONEWEB-0357

ActifCommunicationsPO
NORAD 49219·PAYLOAD·🇬🇧 United Kingdom

Lancé Sep 14, 2021 depuis Baikonur Cosmodrome

Loading…

Prochains Passages (prochaines 24 heures)

TLE

FraisSource: CelesTrak SupGP

Époque: Sep 14, 2026, 16:22 UTC

1 49219C 21083AK  26257.68211065 -.00001139  00000+0 -28048-2 0  2576
2 49219  87.9145 256.5800 0001784  87.6445 307.0338 13.20771866    17

Suivez ONEWEB-0357 en temps réel avec AllMySat

Download on the App Store